Time,TemperatureF,DewpointF,PressureIn,WindDirection,WindDirectionDegrees,WindSpeedMPH,WindSpeedGustMPH,Humidity,HourlyPrecipIn,Conditions,Clouds,dailyrainin,SolarRadiationWatts/m^2,SoftwareType,DateUTC
2013-09-21 00:02:00,55.7,54.0,29.99,NE,40,0.0,0.0,94,0.00,CLR,,0.00,0.0,WeatherDisplay:10.37,2013-09-21 05:02:00,
2013-09-21 00:07:00,55.7,54.0,29.99,NE,40,0.0,0.0,94,0.00,CLR,,0.00,0.0,WeatherDisplay:10.37,2013-09-21 05:07:00,
2013-09-21 00:12:00,55.5,53.8,29.99,NE,40,0.0,0.0,94,0.00,CLR,,0.00,0.0,WeatherDisplay:10.37,2013-09-21 05:12:00,
2013-09-21 00:17:00,55.4,53.7,29.99,NE,40,0.0,0.0,94,0.00,CLR,,0.00,0.0,WeatherDisplay:10.37,2013-09-21 05:17:00,
2013-09-21 00:22:00,55.3,53.6,29.99,NE,40,0.0,0.0,94,0.00,CLR,,0.00,0.0,WeatherDisplay:10.37,2013-09-21 05:22:00,
2013-09-21 00:27:00,55.2,53.5,29.99,NE,40,0.0,0.0,94,0.00,CLR,,0.00,0.0,WeatherDisplay:10.37,2013-09-21 05:27:00,
2013-09-21 00:32:00,55.1,53.7,30.00,NE,40,0.0,0.0,95,0.00,CLR,,0.00,0.0,WeatherDisplay:10.37,2013-09-21 05:32:00,
2013-09-21 00:37:00,55.0,53.6,30.00,NE,40,0.0,0.0,95,0.00,CLR,,0.00,0.0,WeatherDisplay:10.37,2013-09-21 05:37:00,
2013-09-21 00:42:00,54.9,53.5,30.00,NE,40,0.0,0.0,95,0.00,CLR,,0.00,0.0,WeatherDisplay:10.37,2013-09-21 05:42:00,
2013-09-21 00:47:00,54.8,53.4,30.00,NE,40,0.0,0.0,95,0.00,CLR,,0.00,0.0,WeatherDisplay:10.37,2013-09-21 05:47:00,
2013-09-21 00:52:00,54.8,53.4,30.00,NE,40,0.0,0.0,95,0.00,CLR,,0.00,0.0,WeatherDisplay:10.37,2013-09-21 05:52:00,
2013-09-21 00:57:00,54.6,52.9,30.00,NE,40,0.0,0.0,94,0.00,CLR,,0.00,0.0,WeatherDisplay:10.37,2013-09-21 05:57:00,
2013-09-21 01:02:00,54.5,53.1,30.00,NE,40,0.0,0.0,95,0.00,CLR,,0.00,0.0,WeatherDisplay:10.37,2013-09-21 06:02:00,
2013-09-21 01:07:00,54.4,53.0,30.00,NE,40,0.0,0.0,95,0.00,CLR,,0.00,0.0,WeatherDisplay:10.37,2013-09-21 06:07:00,
2013-09-21 01:12:00,54.3,52.9,30.00,NE,40,0.0,0.0,95,0.00,CLR,,0.00,0.0,WeatherDisplay:10.37,2013-09-21 06:12:00,
2013-09-21 01:17:00,54.2,52.8,30.00,NE,40,0.0,0.0,95,0.00,CLR,,0.00,0.0,WeatherDisplay:10.37,2013-09-21 06:17:00,
2013-09-21 01:22:00,54.1,52.7,30.00,NE,40,0.0,0.0,95,0.00,CLR,,0.00,0.0,WeatherDisplay:10.37,2013-09-21 06:22:00,
2013-09-21 01:27:00,54.0,52.6,30.00,NE,40,0.0,0.0,95,0.00,CLR,,0.00,0.0,WeatherDisplay:10.37,2013-09-21 06:27:00,
2013-09-21 01:32:00,53.9,52.5,30.00,NE,40,0.0,0.0,95,0.00,CLR,,0.00,0.0,WeatherDisplay:10.37,2013-09-21 06:32:00,
2013-09-21 01:37:00,53.9,52.5,30.00,NE,40,0.0,0.0,95,0.00,CLR,,0.00,0.0,WeatherDisplay:10.37,2013-09-21 06:37:00,
2013-09-21 01:42:00,53.7,52.3,30.00,NE,40,0.0,0.0,95,0.00,CLR,,0.00,0.0,WeatherDisplay:10.37,2013-09-21 06:42:00,
2013-09-21 01:47:00,53.6,52.2,30.00,NE,40,0.0,0.0,95,0.00,CLR,,0.00,0.0,WeatherDisplay:10.37,2013-09-21 06:47:00,
2013-09-21 01:52:00,53.5,52.1,30.00,NE,40,0.0,0.0,95,0.00,CLR,,0.00,0.0,WeatherDisplay:10.37,2013-09-21 06:52:00,
2013-09-21 01:57:00,53.4,52.0,30.00,NE,40,0.0,0.0,95,0.00,CLR,,0.00,0.0,WeatherDisplay:10.37,2013-09-21 06:57:00,
2013-09-21 02:02:00,53.3,51.9,30.00,NE,40,0.0,0.0,95,0.00,CLR,,0.00,0.0,WeatherDisplay:10.37,2013-09-21 07:02:00,
2013-09-21 02:07:00,53.4,52.3,30.00,NE,40,0.0,0.0,96,0.00,CLR,,0.00,0.0,WeatherDisplay:10.37,2013-09-21 07:07:00,
2013-09-21 02:12:00,53.3,52.2,30.00,NE,40,0.0,0.0,96,0.00,CLR,,0.00,0.0,WeatherDisplay:10.37,2013-09-21 07:12:00,
2013-09-21 02:17:00,53.3,52.2,30.00,NE,40,0.0,0.0,96,0.00,CLR,,0.00,0.0,WeatherDisplay:10.37,2013-09-21 07:17:00,
2013-09-21 02:22:00,53.2,52.1,30.00,NE,40,0.0,0.0,96,0.00,CLR,,0.00,0.0,WeatherDisplay:10.37,2013-09-21 07:22:00,
2013-09-21 02:27:00,53.2,52.1,30.00,NE,40,0.0,0.0,96,0.00,CLR,,0.00,0.0,WeatherDisplay:10.37,2013-09-21 07:27:00,
2013-09-21 02:32:00,53.2,52.1,29.99,NE,40,0.0,0.0,96,0.00,CLR,,0.00,0.0,WeatherDisplay:10.37,2013-09-21 07:32:00,
2013-09-21 02:37:00,53.2,52.1,30.00,NE,40,0.0,0.0,96,0.00,CLR,,0.00,0.0,WeatherDisplay:10.37,2013-09-21 07:37:00,
2013-09-21 02:42:00,53.1,52.0,29.99,NE,40,0.0,0.0,96,0.00,CLR,,0.00,0.0,WeatherDisplay:10.37,2013-09-21 07:42:00,
2013-09-21 02:47:00,53.0,51.9,30.00,NE,40,0.0,0.0,96,0.00,CLR,,0.00,0.0,WeatherDisplay:10.37,2013-09-21 07:47:00,
2013-09-21 02:52:00,52.9,51.8,29.99,NE,40,0.0,0.0,96,0.00,CLR,,0.00,0.0,WeatherDisplay:10.37,2013-09-21 07:52:00,
2013-09-21 02:57:00,52.8,51.7,29.99,NE,40,0.0,0.0,96,0.00,CLR,,0.00,0.0,WeatherDisplay:10.37,2013-09-21 07:57:00,
2013-09-21 03:02:00,52.8,51.7,29.99,NE,40,0.0,0.0,96,0.00,CLR,,0.00,0.0,WeatherDisplay:10.37,2013-09-21 08:02:00,
2013-09-21 03:07:00,52.7,51.6,29.99,NE,40,0.0,0.0,96,0.00,CLR,,0.00,0.0,WeatherDisplay:10.37,2013-09-21 08:07:00,
2013-09-21 03:12:00,52.6,51.5,29.99,NE,40,0.0,0.0,96,0.00,CLR,,0.00,0.0,WeatherDisplay:10.37,2013-09-21 08:12:00,
2013-09-21 03:17:00,52.6,51.5,29.99,NE,40,0.0,0.0,96,0.00,CLR,,0.00,0.0,WeatherDisplay:10.37,2013-09-21 08:17:00,
2013-09-21 03:22:00,52.4,51.3,29.99,NE,40,0.0,0.0,96,0.00,CLR,,0.00,0.0,WeatherDisplay:10.37,2013-09-21 08:22:00,
2013-09-21 03:27:00,52.3,51.2,29.99,NE,40,0.0,0.0,96,0.00,CLR,,0.00,0.0,WeatherDisplay:10.37,2013-09-21 08:27:00,
2013-09-21 03:32:00,52.2,51.1,29.99,NE,40,0.0,0.0,96,0.00,CLR,,0.00,0.0,WeatherDisplay:10.37,2013-09-21 08:32:00,
2013-09-21 03:37:00,52.1,51.0,29.99,NE,40,0.0,0.0,96,0.00,CLR,,0.00,0.0,WeatherDisplay:10.37,2013-09-21 08:37:00,
2013-09-21 03:42:00,52.0,50.9,29.99,NE,40,0.0,0.0,96,0.00,CLR,,0.00,0.0,WeatherDisplay:10.37,2013-09-21 08:42:00,
2013-09-21 03:47:00,52.0,51.2,29.99,NE,40,0.0,0.0,97,0.00,CLR,,0.00,0.0,WeatherDisplay:10.37,2013-09-21 08:47:00,
2013-09-21 03:52:00,52.0,51.2,29.98,NE,40,0.0,0.0,97,0.00,CLR,,0.00,0.0,WeatherDisplay:10.37,2013-09-21 08:52:00,
2013-09-21 03:57:00,51.9,51.1,29.99,NE,40,0.0,0.0,97,0.00,CLR,,0.00,0.0,WeatherDisplay:10.37,2013-09-21 08:57:00,
2013-09-21 04:02:00,51.8,51.0,29.99,NE,40,0.0,0.0,97,0.00,CLR,,0.00,0.0,WeatherDisplay:10.37,2013-09-21 09:02:00,
2013-09-21 04:07:00,51.8,51.0,29.99,NE,40,0.0,0.0,97,0.00,CLR,,0.00,0.0,WeatherDisplay:10.37,2013-09-21 09:07:00,
2013-09-21 04:12:00,51.7,50.9,29.99,NE,40,0.0,0.0,97,0.00,CLR,,0.00,0.0,WeatherDisplay:10.37,2013-09-21 09:12:00,
2013-09-21 04:17:00,51.7,50.9,29.99,NE,40,0.0,0.0,97,0.00,CLR,,0.00,0.0,WeatherDisplay:10.37,2013-09-21 09:17:00,
2013-09-21 04:22:00,51.6,50.8,29.99,NE,40,0.0,0.0,97,0.00,CLR,,0.00,0.0,WeatherDisplay:10.37,2013-09-21 09:22:00,
2013-09-21 04:27:00,51.6,50.8,29.99,NE,40,0.0,0.0,97,0.00,CLR,,0.00,0.0,WeatherDisplay:10.37,2013-09-21 09:27:00,
2013-09-21 04:32:00,51.6,50.8,29.99,NE,40,0.0,0.0,97,0.00,CLR,,0.00,0.0,WeatherDisplay:10.37,2013-09-21 09:32:00,
2013-09-21 04:37:00,51.5,50.7,29.99,NE,40,0.0,0.0,97,0.00,CLR,,0.00,0.0,WeatherDisplay:10.37,2013-09-21 09:37:00,
2013-09-21 04:42:00,51.5,50.7,29.99,NE,40,0.0,0.0,97,0.00,CLR,,0.00,0.0,WeatherDisplay:10.37,2013-09-21 09:42:00,
2013-09-21 04:47:00,51.4,50.6,29.99,NE,40,0.0,0.0,97,0.00,CLR,,0.00,0.0,WeatherDisplay:10.37,2013-09-21 09:47:00,
2013-09-21 04:52:00,51.4,50.6,29.99,NE,40,0.0,0.0,97,0.00,CLR,,0.00,0.0,WeatherDisplay:10.37,2013-09-21 09:52:00,
2013-09-21 04:57:00,51.4,50.6,29.99,NE,40,0.0,0.0,97,0.00,CLR,,0.00,0.0,WeatherDisplay:10.37,2013-09-21 09:57:00,
2013-09-21 05:02:00,51.4,50.6,30.00,NE,40,0.0,0.0,97,0.00,CLR,,0.00,0.0,WeatherDisplay:10.37,2013-09-21 10:02:00,
2013-09-21 05:07:00,51.4,50.6,30.00,NE,40,0.0,0.0,97,0.00,CLR,,0.00,0.0,WeatherDisplay:10.37,2013-09-21 10:07:00,
2013-09-21 05:12:00,51.4,50.6,30.00,NE,40,0.0,0.0,97,0.00,CLR,,0.00,0.0,WeatherDisplay:10.37,2013-09-21 10:12:00,
2013-09-21 05:17:00,51.3,50.5,30.00,NE,40,0.0,0.0,97,0.00,CLR,,0.00,0.0,WeatherDisplay:10.37,2013-09-21 10:17:00,
2013-09-21 05:22:00,51.3,50.5,30.00,NE,40,0.0,0.0,97,0.00,CLR,,0.00,0.0,WeatherDisplay:10.37,2013-09-21 10:22:00,
2013-09-21 05:27:00,51.2,50.4,30.00,NE,40,0.0,0.0,97,0.00,CLR,,0.00,0.0,WeatherDisplay:10.37,2013-09-21 10:27:00,
2013-09-21 05:32:00,51.2,50.4,30.00,NE,40,0.0,0.0,97,0.00,CLR,,0.00,0.0,WeatherDisplay:10.37,2013-09-21 10:32:00,
2013-09-21 05:37:00,51.2,50.4,30.00,NE,40,0.0,0.0,97,0.00,CLR,,0.00,0.0,WeatherDisplay:10.37,2013-09-21 10:37:00,
2013-09-21 05:42:00,51.2,50.4,30.00,NE,40,0.0,0.0,97,0.00,CLR,,0.00,0.0,WeatherDisplay:10.37,2013-09-21 10:42:00,
2013-09-21 05:47:00,51.1,50.3,30.00,NE,40,0.0,0.0,97,0.00,CLR,,0.00,0.0,WeatherDisplay:10.37,2013-09-21 10:47:00,
2013-09-21 05:52:00,51.0,50.5,30.00,NE,40,0.0,0.0,98,0.00,CLR,,0.00,0.0,WeatherDisplay:10.37,2013-09-21 10:52:00,
2013-09-21 05:57:00,51.0,50.5,30.00,NE,40,0.0,0.0,98,0.00,CLR,,0.00,0.0,WeatherDisplay:10.37,2013-09-21 10:57:00,
2013-09-21 06:02:00,50.9,50.4,30.00,NE,40,0.0,0.0,98,0.00,CLR,,0.00,0.0,WeatherDisplay:10.37,2013-09-21 11:02:00,
2013-09-21 06:07:00,50.9,50.4,30.00,NE,40,0.0,0.0,98,0.00,CLR,,0.00,0.0,WeatherDisplay:10.37,2013-09-21 11:07:00,
2013-09-21 06:12:00,50.9,50.4,30.00,NE,40,0.0,0.0,98,0.00,CLR,,0.00,0.0,WeatherDisplay:10.37,2013-09-21 11:12:00,
2013-09-21 06:17:00,51.0,50.5,30.00,NE,40,0.0,0.0,98,0.00,CLR,,0.00,0.0,WeatherDisplay:10.37,2013-09-21 11:17:00,
2013-09-21 06:22:00,51.1,50.6,30.00,NE,40,0.0,0.0,98,0.00,CLR,,0.00,0.0,WeatherDisplay:10.37,2013-09-21 11:22:00,
2013-09-21 06:27:00,51.1,50.6,30.00,NE,40,0.0,0.0,98,0.00,CLR,,0.00,0.0,WeatherDisplay:10.37,2013-09-21 11:27:00,
2013-09-21 06:32:00,51.1,50.6,30.00,NE,40,0.0,0.0,98,0.00,CLR,,0.00,0.0,WeatherDisplay:10.37,2013-09-21 11:32:00,
2013-09-21 06:37:00,51.0,50.5,30.00,NE,40,0.0,0.0,98,0.00,CLR,,0.00,0.0,WeatherDisplay:10.37,2013-09-21 11:37:00,
2013-09-21 06:42:00,50.9,50.4,30.00,NE,40,0.0,0.0,98,0.00,CLR,,0.00,0.0,WeatherDisplay:10.37,2013-09-21 11:42:00,
2013-09-21 06:47:00,50.8,50.3,30.00,NE,40,0.0,0.0,98,0.00,CLR,,0.00,0.0,WeatherDisplay:10.37,2013-09-21 11:47:00,
2013-09-21 06:52:00,50.8,50.3,30.00,NE,40,0.0,0.0,98,0.00,CLR,,0.00,0.0,WeatherDisplay:10.37,2013-09-21 11:52:00,
2013-09-21 06:57:00,50.8,50.3,30.01,NE,40,0.0,0.0,98,0.00,CLR,,0.00,0.0,WeatherDisplay:10.37,2013-09-21 11:57:00,
2013-09-21 07:02:00,50.7,50.2,30.01,NE,40,0.0,0.0,98,0.00,CLR,,0.00,0.0,WeatherDisplay:10.37,2013-09-21 12:02:00,
2013-09-21 07:07:00,50.7,50.2,30.01,NE,40,0.0,0.0,98,0.00,CLR,,0.00,0.0,WeatherDisplay:10.37,2013-09-21 12:07:00,
2013-09-21 07:12:00,50.8,50.3,30.01,NE,40,0.0,0.0,98,0.00,CLR,,0.00,0.0,WeatherDisplay:10.37,2013-09-21 12:12:00,
2013-09-21 07:17:00,50.8,50.3,30.01,NE,40,0.0,0.0,98,0.00,CLR,,0.00,0.0,WeatherDisplay:10.37,2013-09-21 12:17:00,
2013-09-21 07:22:00,50.7,50.2,30.01,NE,40,0.0,0.0,98,0.00,CLR,,0.00,5.0,WeatherDisplay:10.37,2013-09-21 12:22:00,
2013-09-21 07:27:00,50.7,50.2,30.01,NE,40,0.0,0.0,98,0.00,CLR,,0.00,7.0,WeatherDisplay:10.37,2013-09-21 12:27:00,
2013-09-21 07:32:00,50.8,50.3,30.01,NE,40,0.0,0.0,98,0.00,CLR,,0.00,11.0,WeatherDisplay:10.37,2013-09-21 12:32:00,
2013-09-21 07:37:00,50.8,50.3,30.02,NE,40,0.0,0.0,98,0.00,CLR,,0.00,12.0,WeatherDisplay:10.37,2013-09-21 12:37:00,
2013-09-21 07:42:00,50.9,50.4,30.02,NE,40,0.0,0.0,98,0.00,CLR,,0.00,14.0,WeatherDisplay:10.37,2013-09-21 12:42:00,
2013-09-21 07:47:00,50.9,50.4,30.02,NE,40,0.0,0.0,98,0.00,CLR,,0.00,16.0,WeatherDisplay:10.37,2013-09-21 12:47:00,
2013-09-21 07:52:00,50.9,50.4,30.01,NE,40,0.0,0.0,98,0.00,CLR,,0.00,18.0,WeatherDisplay:10.37,2013-09-21 12:52:00,
2013-09-21 07:57:00,51.0,50.5,30.01,NE,40,0.0,0.0,98,0.00,CLR,,0.00,21.0,WeatherDisplay:10.37,2013-09-21 12:57:00,
2013-09-21 08:02:00,51.1,50.6,30.02,NE,40,0.0,0.0,98,0.00,CLR,,0.00,23.0,WeatherDisplay:10.37,2013-09-21 13:02:00,
2013-09-21 08:07:00,51.3,51.0,30.02,NE,40,0.0,0.0,99,0.00,CLR,,0.00,28.0,WeatherDisplay:10.37,2013-09-21 13:07:00,
2013-09-21 08:12:00,51.5,51.2,30.02,NE,40,0.0,0.0,99,0.00,CLR,,0.00,25.0,WeatherDisplay:10.37,2013-09-21 13:12:00,
2013-09-21 08:17:00,51.8,51.5,30.01,NE,40,0.0,0.0,99,0.00,CLR,,0.00,26.0,WeatherDisplay:10.37,2013-09-21 13:17:00,
2013-09-21 08:22:00,52.1,51.8,30.01,NE,40,1.0,1.0,99,0.00,CLR,,0.00,58.0,WeatherDisplay:10.37,2013-09-21 13:22:00,
2013-09-21 08:27:00,52.5,52.2,30.02,SE,130,0.0,0.0,99,0.00,CLR,,0.00,30.0,WeatherDisplay:10.37,2013-09-21 13:27:00,
2013-09-21 08:32:00,52.9,52.6,30.01,SE,130,0.0,0.0,99,0.00,CLR,,0.00,37.0,WeatherDisplay:10.37,2013-09-21 13:32:00,
2013-09-21 08:37:00,53.2,52.9,30.01,SE,130,0.0,0.0,99,0.00,CLR,,0.00,28.0,WeatherDisplay:10.37,2013-09-21 13:37:00,
2013-09-21 08:42:00,53.6,53.6,30.01,SE,130,0.0,0.0,100,0.00,CLR,,0.00,88.0,WeatherDisplay:10.37,2013-09-21 13:42:00,
2013-09-21 08:47:00,54.1,54.1,30.01,SE,130,0.0,0.0,100,0.00,CLR,,0.00,33.0,WeatherDisplay:10.37,2013-09-21 13:47:00,
2013-09-21 08:52:00,54.5,54.2,30.01,SE,130,0.0,0.0,99,0.00,CLR,,0.00,30.0,WeatherDisplay:10.37,2013-09-21 13:52:00,
2013-09-21 08:57:00,55.0,55.0,30.01,SE,130,0.0,0.0,100,0.00,CLR,,0.00,40.0,WeatherDisplay:10.37,2013-09-21 13:57:00,
2013-09-21 09:02:00,55.3,55.3,30.01,SE,130,0.0,0.0,100,0.00,CLR,,0.00,35.0,WeatherDisplay:10.37,2013-09-21 14:02:00,
2013-09-21 09:07:00,55.7,55.7,30.01,SE,130,0.0,0.0,100,0.00,CLR,,0.00,65.0,WeatherDisplay:10.37,2013-09-21 14:07:00,
2013-09-21 09:12:00,56.0,56.0,30.01,SE,130,0.0,0.0,100,0.00,CLR,,0.00,35.0,WeatherDisplay:10.37,2013-09-21 14:12:00,
2013-09-21 09:17:00,56.4,56.4,30.01,SE,130,0.0,0.3,100,0.00,CLR,,0.00,35.0,WeatherDisplay:10.37,2013-09-21 14:17:00,
2013-09-21 09:22:00,56.7,56.4,30.02,SE,130,1.2,0.0,99,0.00,CLR,,0.00,33.0,WeatherDisplay:10.37,2013-09-21 14:22:00,
2013-09-21 09:27:00,57.1,56.8,30.02,SE,130,0.0,0.0,99,0.00,CLR,,0.00,46.0,WeatherDisplay:10.37,2013-09-21 14:27:00,
2013-09-21 09:32:00,57.5,56.7,30.01,SE,130,0.0,0.1,97,0.00,CLR,,0.00,283.0,WeatherDisplay:10.37,2013-09-21 14:32:00,
2013-09-21 09:37:00,58.0,56.9,30.01,SE,130,0.0,0.0,96,0.00,CLR,,0.00,39.0,WeatherDisplay:10.37,2013-09-21 14:37:00,
2013-09-21 09:42:00,58.5,57.1,30.02,SE,130,0.0,0.0,95,0.00,CLR,,0.00,39.0,WeatherDisplay:10.37,2013-09-21 14:42:00,
2013-09-21 09:47:00,59.0,57.3,30.01,SE,130,0.0,0.0,94,0.00,CLR,,0.00,37.0,WeatherDisplay:10.37,2013-09-21 14:47:00,
2013-09-21 09:52:00,59.5,57.2,30.02,SE,130,0.0,0.1,92,0.00,CLR,,0.00,46.0,WeatherDisplay:10.37,2013-09-21 14:52:00,
2013-09-21 09:57:00,60.1,57.2,30.02,SE,146,0.0,0.6,90,0.00,CLR,,0.00,40.0,WeatherDisplay:10.37,2013-09-21 14:57:00,
2013-09-21 10:02:00,60.8,57.2,30.02,SE,143,1.2,0.0,88,0.00,CLR,,0.00,47.0,WeatherDisplay:10.37,2013-09-21 15:02:00,
2013-09-21 10:07:00,61.3,57.4,30.02,SE,143,1.2,0.0,87,0.00,CLR,,0.00,42.0,WeatherDisplay:10.37,2013-09-21 15:07:00,
2013-09-21 10:12:00,61.9,57.0,30.02,SE,143,1.2,0.0,84,0.00,BKN,,0.00,44.0,WeatherDisplay:10.37,2013-09-21 15:12:00,
2013-09-21 10:17:00,62.5,57.6,30.02,SE,143,1.2,0.0,84,0.00,BKN,,0.00,183.0,WeatherDisplay:10.37,2013-09-21 15:17:00,
2013-09-21 10:22:00,63.0,57.8,30.02,SE,143,2.0,2.0,83,0.00,BKN,,0.00,214.0,WeatherDisplay:10.37,2013-09-21 15:22:00,
2013-09-21 10:27:00,63.8,57.5,30.02,SE,143,2.3,2.3,80,0.00,BKN,,0.00,135.0,WeatherDisplay:10.37,2013-09-21 15:27:00,
2013-09-21 10:32:00,64.6,57.9,30.02,SE,143,1.0,1.0,79,0.00,BKN,,0.00,134.0,WeatherDisplay:10.37,2013-09-21 15:32:00,
2013-09-21 10:37:00,65.4,58.4,30.02,SE,142,0.0,0.0,78,0.00,BKN,,0.00,65.0,WeatherDisplay:10.37,2013-09-21 15:37:00,
2013-09-21 10:42:00,66.1,58.3,30.02,SE,142,0.0,0.0,76,0.00,BKN,,0.00,58.0,WeatherDisplay:10.37,2013-09-21 15:42:00,
2013-09-21 10:47:00,66.8,58.6,30.02,SE,142,2.3,2.3,75,0.00,BKN,,0.00,197.0,WeatherDisplay:10.37,2013-09-21 15:47:00,
2013-09-21 10:52:00,67.4,57.3,30.01,SSE,164,1.2,0.0,70,0.00,BKN,,0.00,190.0,WeatherDisplay:10.37,2013-09-21 15:52:00,
2013-09-21 10:57:00,68.0,58.6,30.01,SSE,164,0.0,0.5,72,0.00,BKN,,0.00,70.0,WeatherDisplay:10.37,2013-09-21 15:57:00,
2013-09-21 11:02:00,68.4,58.6,30.01,SE,139,1.2,1.2,71,0.00,BKN,,0.00,54.0,WeatherDisplay:10.37,2013-09-21 16:02:00,
2013-09-21 11:07:00,68.8,58.2,30.01,SSE,162,2.3,2.3,69,0.00,BKN,,0.00,56.0,WeatherDisplay:10.37,2013-09-21 16:07:00,
2013-09-21 11:12:00,69.2,59.0,30.01,SSE,162,1.2,1.2,70,0.00,CLR,,0.00,216.0,WeatherDisplay:10.37,2013-09-21 16:12:00,
2013-09-21 11:17:00,69.5,56.3,30.01,South,173,3.5,3.5,63,0.00,CLR,,0.00,69.0,WeatherDisplay:10.37,2013-09-21 16:17:00,
2013-09-21 11:22:00,70.0,56.4,30.01,SW,232,2.3,2.3,62,0.00,CLR,,0.00,60.0,WeatherDisplay:10.37,2013-09-21 16:22:00,
2013-09-21 11:27:00,70.5,57.7,30.01,ESE,122,3.5,3.5,64,0.00,CLR,,0.00,65.0,WeatherDisplay:10.37,2013-09-21 16:27:00,
2013-09-21 11:32:00,70.8,57.6,30.01,ENE,61,3.5,3.5,63,0.00,CLR,,0.00,221.0,WeatherDisplay:10.37,2013-09-21 16:32:00,
2013-09-21 11:37:00,71.1,57.9,30.00,SSE,163,1.2,1.2,63,0.00,CLR,,0.00,69.0,WeatherDisplay:10.37,2013-09-21 16:37:00,
2013-09-21 11:42:00,71.6,57.9,30.00,SSW,192,3.5,3.5,62,0.00,CLR,,0.00,74.0,WeatherDisplay:10.37,2013-09-21 16:42:00,
2013-09-21 11:47:00,72.1,58.4,30.00,WSW,239,4.0,4.0,62,0.00,CLR,,0.00,239.0,WeatherDisplay:10.37,2013-09-21 16:47:00,
2013-09-21 11:52:00,72.7,56.6,30.00,South,186,3.5,3.5,57,0.00,CLR,,0.00,693.0,WeatherDisplay:10.37,2013-09-21 16:52:00,
2013-09-21 11:57:00,73.2,56.1,30.00,SE,144,3.0,3.0,55,0.00,CLR,,0.00,703.0,WeatherDisplay:10.37,2013-09-21 16:57:00,
2013-09-21 12:02:00,73.8,58.6,30.00,South,191,2.3,2.3,59,0.00,CLR,,0.00,719.0,WeatherDisplay:10.37,2013-09-21 17:02:00,
2013-09-21 12:07:00,74.4,57.2,30.00,ESE,120,2.3,2.3,55,0.00,CLR,,0.00,733.0,WeatherDisplay:10.37,2013-09-21 17:07:00,
2013-09-21 12:12:00,75.0,56.7,30.00,SSW,193,3.5,3.5,53,0.00,CLR,,0.00,751.0,WeatherDisplay:10.37,2013-09-21 17:12:00,
2013-09-21 12:17:00,75.7,57.4,29.99,SSE,157,4.6,4.6,53,0.00,CLR,,0.00,763.0,WeatherDisplay:10.37,2013-09-21 17:17:00,
2013-09-21 12:22:00,76.2,58.3,29.99,ENE,77,2.3,2.3,54,0.00,CLR,,0.00,775.0,WeatherDisplay:10.37,2013-09-21 17:22:00,
2013-09-21 12:28:00,76.7,57.2,29.99,SW,217,1.2,0.0,51,0.00,CLR,,0.00,779.0,WeatherDisplay:10.37,2013-09-21 17:28:00,
2013-09-21 12:33:00,77.1,58.1,29.99,SE,145,3.5,3.5,52,0.00,CLR,,0.00,782.0,WeatherDisplay:10.37,2013-09-21 17:33:00,
2013-09-21 12:38:00,77.2,56.6,29.99,SSW,209,5.8,5.8,49,0.00,CLR,,0.00,789.0,WeatherDisplay:10.37,2013-09-21 17:38:00,
2013-09-21 12:43:00,77.4,56.2,29.99,SSW,213,1.2,1.2,48,0.00,CLR,,0.00,793.0,WeatherDisplay:10.37,2013-09-21 17:43:00,
2013-09-21 12:48:00,77.6,56.9,29.98,South,184,4.6,4.6,49,0.00,CLR,,0.00,796.0,WeatherDisplay:10.37,2013-09-21 17:48:00,
2013-09-21 12:53:00,78.0,57.3,29.98,South,190,4.6,4.6,49,0.00,CLR,,0.00,796.0,WeatherDisplay:10.37,2013-09-21 17:53:00,
2013-09-21 12:58:00,78.2,57.5,29.98,South,185,3.5,3.5,49,0.00,CLR,,0.00,803.0,WeatherDisplay:10.37,2013-09-21 17:58:00,
2013-09-21 13:03:00,78.1,56.8,29.98,SSE,149,4.6,4.6,48,0.00,CLR,,0.00,805.0,WeatherDisplay:10.37,2013-09-21 18:03:00,
2013-09-21 13:08:00,78.2,57.5,29.98,South,175,3.5,3.5,49,0.00,CLR,,0.00,805.0,WeatherDisplay:10.37,2013-09-21 18:08:00,
2013-09-21 13:13:00,78.4,56.5,29.98,South,177,3.5,3.5,47,0.00,CLR,,0.00,810.0,WeatherDisplay:10.37,2013-09-21 18:13:00,
2013-09-21 13:18:00,78.4,55.3,29.98,WSW,242,3.5,3.5,45,0.00,CLR,,0.00,809.0,WeatherDisplay:10.37,2013-09-21 18:18:00,
2013-09-21 13:23:00,78.5,57.2,29.98,South,182,3.5,3.5,48,0.00,CLR,,0.00,710.0,WeatherDisplay:10.37,2013-09-21 18:23:00,
2013-09-21 13:28:00,78.7,56.8,29.97,South,191,4.6,4.6,47,0.00,CLR,,0.00,380.0,WeatherDisplay:10.37,2013-09-21 18:28:00,
2013-09-21 13:33:00,78.7,55.6,29.97,SE,136,4.6,4.6,45,0.00,CLR,,0.00,570.0,WeatherDisplay:10.37,2013-09-21 18:33:00,
2013-09-21 13:38:00,78.4,55.3,29.97,South,185,9.2,9.2,45,0.00,CLR,,0.00,812.0,WeatherDisplay:10.37,2013-09-21 18:38:00,
2013-09-21 13:43:00,78.3,55.8,29.96,SW,226,4.6,4.6,46,0.00,CLR,,0.00,98.0,WeatherDisplay:10.37,2013-09-21 18:43:00,
2013-09-21 13:48:00,78.2,55.7,29.96,WSW,243,6.9,6.9,46,0.00,CLR,,0.00,56.0,WeatherDisplay:10.37,2013-09-21 18:48:00,
2013-09-21 13:53:00,78.3,57.0,29.96,SE,126,3.5,3.5,48,0.00,CLR,,0.00,156.0,WeatherDisplay:10.37,2013-09-21 18:53:00,
2013-09-21 13:58:00,78.3,56.4,29.96,WSW,240,3.5,3.5,47,0.00,CLR,,0.00,803.0,WeatherDisplay:10.37,2013-09-21 18:58:00,
2013-09-21 14:03:00,78.3,57.0,29.96,SE,140,8.1,8.1,48,0.00,CLR,,0.00,802.0,WeatherDisplay:10.37,2013-09-21 19:03:00,
2013-09-21 14:08:00,78.3,55.8,29.96,South,176,6.9,6.9,46,0.00,CLR,,0.00,788.0,WeatherDisplay:10.37,2013-09-21 19:08:00,
2013-09-21 14:13:00,78.4,57.7,29.95,SW,222,3.5,3.5,49,0.00,CLR,,0.00,63.0,WeatherDisplay:10.37,2013-09-21 19:13:00,
2013-09-21 14:18:00,78.5,58.3,29.95,SSE,163,2.0,2.0,50,0.00,CLR,,0.00,167.0,WeatherDisplay:10.37,2013-09-21 19:18:00,
2013-09-21 14:23:00,78.5,55.4,29.95,ESE,122,6.9,6.9,45,0.00,CLR,,0.00,130.0,WeatherDisplay:10.37,2013-09-21 19:23:00,
2013-09-21 14:28:00,78.3,55.2,29.95,South,183,4.0,4.0,45,0.00,CLR,,0.00,77.0,WeatherDisplay:10.37,2013-09-21 19:28:00,
2013-09-21 14:33:00,78.3,55.8,29.95,South,190,8.1,8.1,46,0.00,CLR,,0.00,121.0,WeatherDisplay:10.37,2013-09-21 19:33:00,
2013-09-21 14:38:00,78.4,57.1,29.94,ESE,119,8.0,8.0,48,0.00,CLR,,0.00,380.0,WeatherDisplay:10.37,2013-09-21 19:38:00,
2013-09-21 14:43:00,78.5,57.7,29.94,South,187,3.5,3.5,49,0.00,CLR,,0.00,703.0,WeatherDisplay:10.37,2013-09-21 19:43:00,
2013-09-21 14:48:00,78.8,56.9,29.94,WSW,242,4.6,4.6,47,0.00,CLR,,0.00,761.0,WeatherDisplay:10.37,2013-09-21 19:48:00,
2013-09-21 14:53:00,79.3,57.3,29.94,South,184,5.0,5.0,47,0.00,CLR,,0.00,691.0,WeatherDisplay:10.37,2013-09-21 19:53:00,
2013-09-21 14:58:00,79.5,56.3,29.94,SSW,197,3.5,3.5,45,0.00,CLR,,0.00,752.0,WeatherDisplay:10.37,2013-09-21 19:58:00,
2013-09-21 15:03:00,79.8,56.6,29.94,SSE,151,4.6,4.6,45,0.00,CLR,,0.00,742.0,WeatherDisplay:10.37,2013-09-21 20:03:00,
2013-09-21 15:08:00,80.2,56.9,29.93,South,169,2.3,2.3,45,0.00,CLR,,0.00,737.0,WeatherDisplay:10.37,2013-09-21 20:08:00,
2013-09-21 15:13:00,80.4,56.5,29.93,SW,214,6.9,6.9,44,0.00,CLR,,0.00,726.0,WeatherDisplay:10.37,2013-09-21 20:13:00,
2013-09-21 15:18:00,80.8,56.9,29.93,SSW,208,9.2,9.2,44,0.00,CLR,,0.00,717.0,WeatherDisplay:10.37,2013-09-21 20:18:00,
2013-09-21 15:23:00,81.1,57.1,29.93,South,183,5.8,5.8,44,0.00,CLR,,0.00,708.0,WeatherDisplay:10.37,2013-09-21 20:23:00,
2013-09-21 15:28:00,81.0,57.0,29.92,SSW,207,3.5,3.5,44,0.00,CLR,,0.00,700.0,WeatherDisplay:10.37,2013-09-21 20:28:00,
2013-09-21 15:33:00,81.2,56.6,29.92,SE,138,6.9,6.9,43,0.00,CLR,,0.00,689.0,WeatherDisplay:10.37,2013-09-21 20:33:00,
2013-09-21 15:38:00,81.2,55.9,29.92,SSE,162,4.6,4.6,42,0.00,CLR,,0.00,679.0,WeatherDisplay:10.37,2013-09-21 20:38:00,
2013-09-21 15:43:00,81.2,57.8,29.92,SSE,165,3.5,3.5,45,0.00,CLR,,0.00,671.0,WeatherDisplay:10.37,2013-09-21 20:43:00,
2013-09-21 15:48:00,81.4,56.8,29.91,ESE,109,4.6,4.6,43,0.00,CLR,,0.00,657.0,WeatherDisplay:10.37,2013-09-21 20:48:00,
2013-09-21 15:53:00,81.4,56.8,29.91,SSW,211,5.8,5.8,43,0.00,CLR,,0.00,647.0,WeatherDisplay:10.37,2013-09-21 20:53:00,
2013-09-21 15:58:00,81.4,58.0,29.91,SSW,197,6.9,6.9,45,0.00,CLR,,0.00,636.0,WeatherDisplay:10.37,2013-09-21 20:58:00,
2013-09-21 16:03:00,81.4,56.8,29.91,SSW,212,5.8,5.8,43,0.00,CLR,,0.00,628.0,WeatherDisplay:10.37,2013-09-21 21:03:00,
2013-09-21 16:08:00,81.6,56.9,29.91,South,190,3.5,3.5,43,0.00,CLR,,0.00,612.0,WeatherDisplay:10.37,2013-09-21 21:08:00,
2013-09-21 16:13:00,81.6,58.2,29.91,South,178,4.0,4.0,45,0.00,CLR,,0.00,599.0,WeatherDisplay:10.37,2013-09-21 21:13:00,
2013-09-21 16:18:00,81.8,56.5,29.91,SSE,157,6.9,6.9,42,0.00,CLR,,0.00,589.0,WeatherDisplay:10.37,2013-09-21 21:18:00,
2013-09-21 16:23:00,81.9,56.6,29.90,SE,127,4.6,4.6,42,0.00,CLR,,0.00,578.0,WeatherDisplay:10.37,2013-09-21 21:23:00,
2013-09-21 16:28:00,81.7,55.7,29.90,South,174,4.6,4.6,41,0.00,CLR,,0.00,563.0,WeatherDisplay:10.37,2013-09-21 21:28:00,
2013-09-21 16:33:00,81.5,57.5,29.90,SSW,202,1.2,1.2,44,0.00,CLR,,0.00,552.0,WeatherDisplay:10.37,2013-09-21 21:33:00,
2013-09-21 16:38:00,81.4,57.4,29.90,South,184,3.5,3.5,44,0.00,CLR,,0.00,534.0,WeatherDisplay:10.37,2013-09-21 21:38:00,
2013-09-21 16:43:00,81.6,57.6,29.89,South,179,3.5,3.5,44,0.00,CLR,,0.00,524.0,WeatherDisplay:10.37,2013-09-21 21:43:00,
2013-09-21 16:48:00,81.9,57.2,29.89,South,180,4.6,4.6,43,0.00,CLR,,0.00,508.0,WeatherDisplay:10.37,2013-09-21 21:48:00,
2013-09-21 16:53:00,82.0,56.6,29.89,South,177,5.8,5.8,42,0.00,CLR,,0.00,494.0,WeatherDisplay:10.37,2013-09-21 21:53:00,
2013-09-21 16:58:00,82.2,58.1,29.89,SSE,168,2.3,2.3,44,0.00,CLR,,0.00,480.0,WeatherDisplay:10.37,2013-09-21 21:58:00,
2013-09-21 17:03:00,82.2,57.5,29.89,SE,144,4.6,4.6,43,0.00,CLR,,0.00,462.0,WeatherDisplay:10.37,2013-09-21 22:03:00,
2013-09-21 17:08:00,82.3,56.9,29.89,WSW,248,3.5,3.5,42,0.00,CLR,,0.00,452.0,WeatherDisplay:10.37,2013-09-21 22:08:00,
2013-09-21 17:13:00,82.1,58.7,29.89,South,177,4.0,4.0,45,0.00,CLR,,0.00,436.0,WeatherDisplay:10.37,2013-09-21 22:13:00,
2013-09-21 17:18:00,82.1,58.0,29.89,SW,217,5.0,5.0,44,0.00,CLR,,0.00,420.0,WeatherDisplay:10.37,2013-09-21 22:18:00,
2013-09-21 17:24:00,82.2,56.8,29.89,SSW,195,5.8,5.8,42,0.00,CLR,,0.00,404.0,WeatherDisplay:10.37,2013-09-21 22:24:00,
2013-09-21 17:29:00,82.4,57.0,29.89,SE,138,3.5,3.5,42,0.00,CLR,,0.00,385.0,WeatherDisplay:10.37,2013-09-21 22:29:00,
2013-09-21 17:34:00,82.1,56.7,29.88,SW,223,6.9,6.9,42,0.00,CLR,,0.00,373.0,WeatherDisplay:10.37,2013-09-21 22:34:00,
2013-09-21 17:39:00,81.7,57.0,29.88,SE,142,4.6,4.6,43,0.00,CLR,,0.00,352.0,WeatherDisplay:10.37,2013-09-21 22:39:00,
2013-09-21 17:44:00,80.9,56.3,29.88,South,180,6.9,6.9,43,0.00,CLR,,0.00,334.0,WeatherDisplay:10.37,2013-09-21 22:44:00,
2013-09-21 17:49:00,80.5,57.2,29.88,SSE,163,2.3,2.3,45,0.00,CLR,,0.00,316.0,WeatherDisplay:10.37,2013-09-21 22:49:00,
2013-09-21 17:54:00,80.1,56.2,29.88,South,180,4.6,4.6,44,0.00,CLR,,0.00,49.0,WeatherDisplay:10.37,2013-09-21 22:54:00,
2013-09-21 17:59:00,79.8,56.6,29.88,SSW,201,3.5,3.5,45,0.00,CLR,,0.00,47.0,WeatherDisplay:10.37,2013-09-21 22:59:00,
2013-09-21 18:04:00,79.4,56.2,29.88,SSE,154,8.1,8.1,45,0.00,CLR,,0.00,46.0,WeatherDisplay:10.37,2013-09-21 23:04:00,
2013-09-21 18:09:00,79.1,56.5,29.88,SSW,194,3.5,3.5,46,0.00,CLR,,0.00,44.0,WeatherDisplay:10.37,2013-09-21 23:09:00,
2013-09-21 18:14:00,78.9,56.4,29.88,SW,223,3.5,3.5,46,0.00,CLR,,0.00,42.0,WeatherDisplay:10.37,2013-09-21 23:14:00,
2013-09-21 18:19:00,78.6,56.1,29.88,SSE,167,4.6,4.6,46,0.00,CLR,,0.00,42.0,WeatherDisplay:10.37,2013-09-21 23:19:00,
2013-09-21 18:24:00,78.4,55.3,29.88,SSW,196,4.6,4.6,45,0.00,CLR,,0.00,40.0,WeatherDisplay:10.37,2013-09-21 23:24:00,
2013-09-21 18:29:00,78.1,56.2,29.88,SW,217,3.5,3.5,47,0.00,CLR,,0.00,39.0,WeatherDisplay:10.37,2013-09-21 23:29:00,
2013-09-21 18:34:00,77.8,57.7,29.88,South,173,2.3,2.3,50,0.00,CLR,,0.00,35.0,WeatherDisplay:10.37,2013-09-21 23:34:00,
2013-09-21 18:39:00,77.4,56.2,29.87,South,186,3.5,3.5,48,0.00,CLR,,0.00,33.0,WeatherDisplay:10.37,2013-09-21 23:39:00,
2013-09-21 18:44:00,77.0,57.5,29.87,South,171,3.0,3.0,51,0.00,CLR,,0.00,30.0,WeatherDisplay:10.37,2013-09-21 23:44:00,
2013-09-21 18:49:00,76.6,58.2,29.87,South,171,0.0,0.0,53,0.00,CLR,,0.00,28.0,WeatherDisplay:10.37,2013-09-21 23:49:00,
2013-09-21 18:54:00,76.2,57.8,29.87,South,171,1.2,0.0,53,0.00,CLR,,0.00,25.0,WeatherDisplay:10.37,2013-09-21 23:54:00,
2013-09-21 18:59:00,75.7,58.4,29.87,South,171,1.2,1.2,55,0.00,CLR,,0.00,21.0,WeatherDisplay:10.37,2013-09-21 23:59:00,
2013-09-21 19:04:00,75.2,58.9,29.87,South,171,1.2,1.2,57,0.00,CLR,,0.00,19.0,WeatherDisplay:10.37,2013-09-22 00:04:00,
2013-09-21 19:09:00,74.8,59.0,29.87,South,171,1.2,1.2,58,0.00,CLR,,0.00,16.0,WeatherDisplay:10.37,2013-09-22 00:09:00,
2013-09-21 19:14:00,74.3,59.5,29.87,South,171,1.2,1.2,60,0.00,CLR,,0.00,12.0,WeatherDisplay:10.37,2013-09-22 00:14:00,
2013-09-21 19:19:00,73.8,59.5,29.87,South,171,2.3,2.3,61,0.00,CLR,,0.00,9.0,WeatherDisplay:10.37,2013-09-22 00:19:00,
2013-09-21 19:24:00,73.2,58.9,29.87,South,171,0.0,0.0,61,0.00,CLR,,0.00,5.0,WeatherDisplay:10.37,2013-09-22 00:24:00,
2013-09-21 19:29:00,72.7,58.5,29.87,South,171,0.0,0.0,61,0.00,CLR,,0.00,0.0,WeatherDisplay:10.37,2013-09-22 00:29:00,
2013-09-21 19:34:00,72.2,59.8,29.87,South,171,0.0,0.0,65,0.00,CLR,,0.00,0.0,WeatherDisplay:10.37,2013-09-22 00:34:00,
2013-09-21 19:39:00,71.6,58.8,29.87,South,171,0.0,0.0,64,0.00,CLR,,0.00,0.0,WeatherDisplay:10.37,2013-09-22 00:39:00,
2013-09-21 19:44:00,71.1,58.7,29.87,South,171,1.2,1.2,65,0.00,CLR,,0.00,0.0,WeatherDisplay:10.37,2013-09-22 00:44:00,
2013-09-21 19:49:00,70.5,58.6,29.87,South,171,0.0,0.0,66,0.00,CLR,,0.00,0.0,WeatherDisplay:10.37,2013-09-22 00:49:00,
2013-09-21 19:54:00,70.0,59.0,29.87,South,171,0.0,0.0,68,0.00,CLR,,0.00,0.0,WeatherDisplay:10.37,2013-09-22 00:54:00,
2013-09-21 19:59:00,69.4,58.8,29.87,South,171,0.0,0.0,69,0.00,CLR,,0.00,0.0,WeatherDisplay:10.37,2013-09-22 00:59:00,
2013-09-21 20:04:00,68.9,58.7,29.87,South,171,0.0,0.0,70,0.00,CLR,,0.00,0.0,WeatherDisplay:10.37,2013-09-22 01:04:00,
2013-09-21 20:09:00,68.4,58.2,29.87,South,171,0.0,0.0,70,0.00,CLR,,0.00,0.0,WeatherDisplay:10.37,2013-09-22 01:09:00,
2013-09-21 20:14:00,67.9,58.1,29.87,South,171,0.0,0.0,71,0.00,CLR,,0.00,0.0,WeatherDisplay:10.37,2013-09-22 01:14:00,
2013-09-21 20:19:00,67.4,58.1,29.87,South,171,0.0,0.0,72,0.00,CLR,,0.00,0.0,WeatherDisplay:10.37,2013-09-22 01:19:00,
2013-09-21 20:24:00,67.0,58.4,29.87,South,171,2.3,2.3,74,0.00,CLR,,0.00,0.0,WeatherDisplay:10.37,2013-09-22 01:24:00,
2013-09-21 20:29:00,66.6,58.1,29.88,South,171,1.2,1.2,74,0.00,CLR,,0.00,0.0,WeatherDisplay:10.37,2013-09-22 01:29:00,
2013-09-21 20:34:00,66.3,58.5,29.88,South,171,1.2,1.2,76,0.00,CLR,,0.00,0.0,WeatherDisplay:10.37,2013-09-22 01:34:00,
2013-09-21 20:39:00,66.0,58.6,29.88,South,171,1.2,1.2,77,0.00,CLR,,0.00,0.0,WeatherDisplay:10.37,2013-09-22 01:39:00,
2013-09-21 20:44:00,65.6,58.2,29.88,South,171,0.0,0.0,77,0.00,CLR,,0.00,0.0,WeatherDisplay:10.37,2013-09-22 01:44:00,
2013-09-21 20:49:00,65.3,57.9,29.88,South,171,0.0,0.0,77,0.00,CLR,,0.00,0.0,WeatherDisplay:10.37,2013-09-22 01:49:00,
2013-09-21 20:54:00,65.1,57.7,29.88,South,171,0.0,0.0,77,0.00,CLR,,0.00,0.0,WeatherDisplay:10.37,2013-09-22 01:54:00,
2013-09-21 20:59:00,64.9,57.5,29.88,South,171,0.0,0.0,77,0.00,CLR,,0.00,0.0,WeatherDisplay:10.37,2013-09-22 01:59:00,
2013-09-21 21:04:00,64.7,57.7,29.88,SSE,164,1.2,0.0,78,0.00,CLR,,0.00,0.0,WeatherDisplay:10.37,2013-09-22 02:04:00,
2013-09-21 21:09:00,64.5,57.1,29.89,SSE,164,1.2,0.0,77,0.00,CLR,,0.00,0.0,WeatherDisplay:10.37,2013-09-22 02:09:00,
2013-09-21 21:14:00,64.3,57.3,29.89,SSE,162,2.3,2.3,78,0.00,CLR,,0.00,0.0,WeatherDisplay:10.37,2013-09-22 02:14:00,
2013-09-21 21:19:00,64.1,57.5,29.88,SSE,164,0.0,0.3,79,0.00,CLR,,0.00,0.0,WeatherDisplay:10.37,2013-09-22 02:19:00,
2013-09-21 21:24:00,64.0,56.6,29.89,SE,127,3.5,3.5,77,0.00,CLR,,0.00,0.0,WeatherDisplay:10.37,2013-09-22 02:24:00,
2013-09-21 21:29:00,63.9,56.9,29.89,SSE,147,1.2,1.2,78,0.00,CLR,,0.00,0.0,WeatherDisplay:10.37,2013-09-22 02:29:00,
2013-09-21 21:34:00,63.9,56.5,29.89,SSE,147,1.2,1.2,77,0.00,CLR,,0.00,0.0,WeatherDisplay:10.37,2013-09-22 02:34:00,
2013-09-21 21:39:00,64.0,56.6,29.89,SSE,155,2.3,2.3,77,0.00,CLR,,0.00,0.0,WeatherDisplay:10.37,2013-09-22 02:39:00,
2013-09-21 21:44:00,64.2,56.5,29.89,SE,140,2.3,2.3,76,0.00,CLR,,0.00,0.0,WeatherDisplay:10.37,2013-09-22 02:44:00,
2013-09-21 21:49:00,64.4,56.3,29.89,SSE,163,3.5,3.5,75,0.00,CLR,,0.00,0.0,WeatherDisplay:10.37,2013-09-22 02:49:00,
2013-09-21 21:54:00,64.6,56.5,29.89,South,186,2.3,2.3,75,0.00,CLR,,0.00,0.0,WeatherDisplay:10.37,2013-09-22 02:54:00,
2013-09-21 21:59:00,64.8,56.7,29.89,SE,146,3.5,3.5,75,0.00,CLR,,0.00,0.0,WeatherDisplay:10.37,2013-09-22 02:59:00,
2013-09-21 22:04:00,64.9,56.8,29.90,South,191,2.0,2.0,75,0.00,CLR,,0.00,0.0,WeatherDisplay:10.37,2013-09-22 03:04:00,
2013-09-21 22:09:00,64.9,56.8,29.90,SE,142,2.3,2.3,75,0.00,CLR,,0.00,0.0,WeatherDisplay:10.37,2013-09-22 03:09:00,
2013-09-21 22:14:00,64.8,56.3,29.90,SSE,159,3.5,3.5,74,0.00,CLR,,0.00,0.0,WeatherDisplay:10.37,2013-09-22 03:14:00,
2013-09-21 22:19:00,64.7,56.6,29.90,South,172,2.3,2.3,75,0.00,CLR,,0.00,0.0,WeatherDisplay:10.37,2013-09-22 03:19:00,
2013-09-21 22:24:00,64.6,56.5,29.90,SSE,148,2.3,2.3,75,0.00,CLR,,0.00,0.0,WeatherDisplay:10.37,2013-09-22 03:24:00,
2013-09-21 22:29:00,64.5,56.4,29.90,South,175,2.3,2.3,75,0.00,CLR,,0.00,0.0,WeatherDisplay:10.37,2013-09-22 03:29:00,
2013-09-21 22:34:00,64.4,56.3,29.90,SSE,153,1.2,1.2,75,0.00,CLR,,0.00,0.0,WeatherDisplay:10.37,2013-09-22 03:34:00,
2013-09-21 22:39:00,64.3,56.6,29.90,South,178,1.2,0.0,76,0.00,CLR,,0.00,0.0,WeatherDisplay:10.37,2013-09-22 03:39:00,
2013-09-21 22:44:00,64.1,56.4,29.90,South,169,0.0,0.0,76,0.00,CLR,,0.00,0.0,WeatherDisplay:10.37,2013-09-22 03:44:00,
2013-09-21 22:49:00,63.9,56.5,29.90,South,169,1.2,1.2,77,0.00,CLR,,0.00,0.0,WeatherDisplay:10.37,2013-09-22 03:49:00,
2013-09-21 22:54:00,63.6,56.3,29.90,South,169,0.0,0.0,77,0.00,CLR,,0.00,0.0,WeatherDisplay:10.37,2013-09-22 03:54:00,
2013-09-21 22:59:00,63.4,56.4,29.90,South,169,0.0,0.0,78,0.00,CLR,,0.00,0.0,WeatherDisplay:10.37,2013-09-22 03:59:00,
2013-09-21 23:01:00,63.3,56.3,29.90,South,169,0.0,0.0,78,0.00,CLR,,0.00,0.0,WeatherDisplay:10.37,2013-09-22 04:01:00,
2013-09-21 23:02:00,63.2,56.2,29.90,South,169,0.0,0.0,78,0.00,CLR,,0.00,0.0,WeatherDisplay:10.37,2013-09-22 04:02:00,
2013-09-21 23:07:00,63.0,56.4,29.90,SE,139,2.3,2.3,79,0.00,CLR,,0.00,0.0,WeatherDisplay:10.37,2013-09-22 04:07:00,
2013-09-21 23:12:00,62.8,56.2,29.90,SE,139,1.2,1.2,79,0.00,CLR,,0.00,0.0,WeatherDisplay:10.37,2013-09-22 04:12:00,
2013-09-21 23:17:00,62.6,56.3,29.90,SE,139,0.0,0.0,80,0.00,CLR,,0.00,0.0,WeatherDisplay:10.37,2013-09-22 04:17:00,
2013-09-21 23:22:00,62.3,56.4,29.90,SE,139,0.0,0.0,81,0.00,CLR,,0.00,0.0,WeatherDisplay:10.37,2013-09-22 04:22:00,
2013-09-21 23:27:00,62.1,56.2,29.90,SE,139,3.0,3.0,81,0.00,CLR,,0.00,0.0,WeatherDisplay:10.37,2013-09-22 04:27:00,
2013-09-21 23:32:00,61.9,56.0,29.90,SE,139,0.0,0.0,81,0.00,CLR,,0.00,0.0,WeatherDisplay:10.37,2013-09-22 04:32:00,
2013-09-21 23:37:00,61.7,56.1,29.90,SE,139,0.0,0.0,82,0.00,CLR,,0.00,0.0,WeatherDisplay:10.37,2013-09-22 04:37:00,
2013-09-21 23:42:00,61.4,55.9,29.90,SE,139,1.2,1.2,82,0.00,CLR,,0.00,0.0,WeatherDisplay:10.37,2013-09-22 04:42:00,
2013-09-21 23:47:00,61.2,56.0,29.90,SE,139,0.0,0.0,83,0.00,CLR,,0.00,0.0,WeatherDisplay:10.37,2013-09-22 04:47:00,
2013-09-21 23:52:00,61.0,55.8,29.90,SE,139,1.0,1.0,83,0.00,CLR,,0.00,0.0,WeatherDisplay:10.37,2013-09-22 04:52:00,
2013-09-21 23:57:00,60.8,55.9,29.90,SE,139,0.0,0.0,84,0.00,CLR,,0.00,0.0,WeatherDisplay:10.37,2013-09-22 04:57:00,